OBJECT TZ

Last updated on Sun Jul 31 2022 00:02:07 GMT+0000 (Coordinated Universal Time)

1 53321U 98067TZ 22208.36978215 .00011156 00000+0 19950-3 0 9999 2 53321 51.6431 137.5435 0004310 64.8569 34.2552 15.50517379 947
UTC large
Height (km)
Speed (km/s)
/
Latitude / Longitude
Inclination (degrees)
Orbital Period (minutes)
Azimuth
Elevation
Range (km)
Doppler Factor

Next 0 passes for location: London (51.5072 / 0.1276)

Sorry there are no passes over London.
OBJECT TZ